Change the Weather History Date:

Friday, August 2, 2013

  Actual Average Record
Temperature  
Mean Temperature 67 °F -  
Max Temperature 82 °F 91 °F 100 °F (1992)
Min Temperature 52 °F 59 °F 49 °F (1991)
Degree Days  
Heating Degree Days 0 0  
Month to date heating degree days 0 0  
Since 1 June heating degree days 55 93  
Since 1 July heating degree days 0 6  
Cooling Degree Days 2 10  
Month to date cooling degree days 12 20  
Year to date cooling degree days 668 406  
Since 1 June cooling degree days 643 384  
Growing Degree Days 18 (Base 50)    
Moisture  
Dew Point 38 °F    
Average Humidity 33    
Maximum Humidity 47    
Minimum Humidity 19    
Precipitation  
Precipitation 0.00 in 0.01 in 0.24 in (2003)
Month to date precipitation 0.00 0.02  
Year to date precipitation 3.19 6.58  
Sea Level Pressure  
Sea Level Pressure 29.90 in    
Wind  
Wind Speed 9 mph (WSW)    
Max Wind Speed 20 mph    
Max Gust Speed 25 mph    
Visibility 10 miles    
Events      
T = Trace of Precipitation, MM = Missing Value Source: NWS Daily Summary

Daily Weather History Graph

Daily Weather History Graph

Search for Another Location

Airport or City:

Trip Planner

Search our weather history database for the weather conditions in past years. The results will help you decide how hot, cold, wet, or windy it might be!

Date:

Astronomy

Aug. 02, 2013 Rise Set
Actual Time 6:31 AM MDT 8:56 PM MDT
Civil Twilight 5:59 AM MDT 9:27 PM MDT
Nautical Twilight 5:20 AM MDT 10:06 PM MDT
Astronomical Twilight 4:36 AM MDT 10:50 PM MDT
Moon 2:54 AM MDT 5:57 PM MDT
Length of Visible Light 15h 27m
Length of Day
14h 24m
Waning Crescent, 15% of the Moon is Illuminated
Aug 2
Waning Crescent
Aug 6
New
Aug 14
First Quarter
Aug 20
Full
Aug 28
Last Quarter

Hourly Weather History & Observations

Time (MDT) Temp. Dew Point Humidity Pressure Visibility Wind Dir Wind Speed Gust Speed Precip Events Conditions
12:53 AM 64.0 °F 39.9 °F 41% 29.82 in 10.0 mi SSW 16.1 mph - N/A   Clear
1:53 AM 63.0 °F 37.9 °F 40% 29.83 in 10.0 mi SW 18.4 mph 24.2 mph N/A   Clear
2:53 AM 62.1 °F 37.9 °F 41% 29.84 in 10.0 mi SSW 13.8 mph - N/A   Clear
3:53 AM 60.1 °F 37.9 °F 44% 29.86 in 10.0 mi South 13.8 mph - N/A   Clear
4:53 AM 60.1 °F 37.0 °F 42% 29.88 in 10.0 mi South 11.5 mph - N/A   Clear
5:53 AM 61.0 °F 37.0 °F 41% 29.89 in 10.0 mi SSW 9.2 mph - N/A   Clear
6:53 AM 55.0 °F 36.0 °F 49% 29.93 in 10.0 mi SW 8.1 mph - N/A   Clear
7:53 AM 61.0 °F 37.9 °F 42% 29.94 in 10.0 mi SW 4.6 mph - N/A   Clear
8:53 AM 66.0 °F 39.9 °F 38% 29.94 in 10.0 mi WSW 8.1 mph - N/A   Clear
9:53 AM 69.1 °F 41.0 °F 36% 29.97 in 10.0 mi West 11.5 mph - N/A   Clear
10:53 AM 72.0 °F 42.1 °F 34% 29.96 in 10.0 mi West 8.1 mph - N/A   Clear
11:53 AM 73.9 °F 42.1 °F 32% 29.96 in 10.0 mi Variable 6.9 mph - N/A   Clear
12:53 PM 75.9 °F 41.0 °F 29% 29.95 in 10.0 mi NW 8.1 mph - N/A   Clear
1:53 PM 78.1 °F 37.9 °F 24% 29.93 in 10.0 mi NW 5.8 mph - N/A   Clear
2:53 PM 79.0 °F 39.0 °F 24% 29.91 in 10.0 mi NW 8.1 mph - N/A   Clear
3:53 PM 81.0 °F 37.9 °F 21% 29.89 in 10.0 mi NW 10.4 mph - N/A   Clear
4:53 PM 81.0 °F 37.0 °F 21% 29.88 in 10.0 mi NNW 9.2 mph - N/A   Clear
5:53 PM 81.0 °F 36.0 °F 20% 29.86 in 10.0 mi NW 11.5 mph - N/A   Clear
6:53 PM 80.1 °F 36.0 °F 20% 29.86 in 10.0 mi NW 9.2 mph - N/A   Clear
7:53 PM 78.1 °F 34.0 °F 20% 29.86 in 10.0 mi WNW 5.8 mph - N/A   Clear
8:53 PM 66.0 °F 39.0 °F 37% 29.88 in 10.0 mi Calm Calm - N/A   Clear
9:53 PM 66.9 °F 34.0 °F 30% 29.88 in 10.0 mi SW 6.9 mph - N/A   Clear
10:53 PM 66.9 °F 35.1 °F 31% 29.88 in 10.0 mi SSW 8.1 mph - N/A   Clear
11:53 PM 66.9 °F 32.0 °F 27% 29.88 in 10.0 mi SW 9.2 mph - N/A   Clear